KD8DWO Weather Reports


time (UTC)temp
C
wind
direction
speed
KPH
gust
KPH
rain 1hr
cm
rain 24hr
cm
rain mn
cm
humidity
%
barometer
mb
20260508195005 12 253 0.0 0.0 0.00 0.00 0.00 83 1010.1
20260508194005 12 247 0.0 0.0 0.00 0.00 0.00 80 1010.2
20260508193005 13 232 0.0 0.0 0.00 0.00 0.00 79 1010.5
20260508191005 13 240 0.0 16.1 0.00 0.00 0.00 75 1010.5
20260508185005 14 236 14.5 24.1 0.00 0.00 0.00 74 1010.7
20260508184005 14 246 22.5 25.7 0.00 0.00 0.00 73 1010.5
20260508182005 15 236 16.1 25.7 0.00 0.00 0.00 65 1010.9
20260508181004 15 245 22.5 25.7 0.00 0.00 0.00 62 1011.0
20260508180005 15 234 4.8 24.1 0.00 0.00 0.00 63 1011.0
20260508175005 15 239 11.3 24.1 0.00 0.00 0.00 64 1011.2
20260508174005 15 243 11.3 20.9 0.00 0.00 0.00 69 1011.0
20260508173005 14 241 16.1 27.4 0.00 0.00 0.00 66 1011.3
20260508172005 15 249 12.9 16.1 0.00 0.00 0.00 69 1011.4
20260508171005 14 249 16.1 16.1 0.00 0.00 0.00 69 1011.7
20260508170005 14 248 12.9 19.3 0.00 0.00 0.00 69 1011.5
20260508165004 13 251 4.8 24.1 0.00 0.00 0.00 71 1011.8
20260508164004 13 243 11.3 24.1 0.00 0.00 0.00 71 1011.9
20260508163005 13 245 9.7 20.9 0.00 0.00 0.00 71 1011.9
20260508161005 13 249 0.0 8.0 0.00 0.00 0.00 73 1012.4
20260508160005 12 244 8.0 24.1 0.00 0.00 0.00 73 1012.4
20260508153004 12 256 0.0 0.0 0.00 0.00 0.00 74 1012.4
20260508152004 12 253 0.0 0.0 0.00 0.00 0.00 75 1012.5
20260508151004 12 240 0.0 0.0 0.00 0.00 0.00 74 1012.5
20260508150006 12 237 0.0 4.8 0.00 0.00 0.00 74 1012.5
20260508142004 11 247 0.0 0.0 0.00 0.00 0.00 75 1012.6
20260508141005 11 234 0.0 0.0 0.00 0.00 0.00 77 1012.4
20260508140004 11 242 0.0 0.0 0.00 0.00 0.00 78 1012.5
20260508135004 11 252 0.0 0.0 0.00 0.00 0.00 78 1012.5
20260508134004 11 248 0.0 0.0 0.00 0.00 0.00 78 1012.5
20260508132004 11 255 0.0 0.0 0.00 0.00 0.00 80 1012.5
20260508130004 10 235 0.0 0.0 0.00 0.00 0.00 80 1012.6
20260508125005 10 248 0.0 4.8 0.00 0.00 0.00 82 1012.7
20260508124005 10 248 0.0 0.0 0.00 0.00 0.00 83 1012.6
20260508123004 9 244 0.0 0.0 0.00 0.00 0.00 84 1012.9
20260508122004 8 241 0.0 0.0 0.00 0.00 0.00 86 1012.7
20260508121004 8 248 0.0 0.0 0.00 0.00 0.00 88 1012.6
20260508115004 7 243 0.0 0.0 0.00 0.00 0.00 88 1012.5
20260508114005 7 240 0.0 0.0 0.00 0.00 0.00 89 1012.4
20260508112004 7 240 0.0 0.0 0.00 0.00 0.00 90 1011.9
20260508110004 6 241 0.0 0.0 0.00 0.00 0.00 90 1012.0
20260508105004 6 240 0.0 0.0 0.00 0.00 0.00 89 1011.8
20260508104004 6 241 0.0 0.0 0.00 0.00 0.00 89 1011.6
20260508103004 6 239 0.0 0.0 0.00 0.00 0.00 89 1011.7
20260508102004 6 239 0.0 0.0 0.00 0.00 0.00 89 1011.5
20260508101004 6 239 0.0 0.0 0.00 0.00 0.00 89 1011.6
20260508100004 6 239 0.0 0.0 0.00 0.00 0.00 89 1011.6
20260508095004 6 239 0.0 0.0 0.00 0.00 0.00 88 1011.6
20260508093004 7 239 0.0 0.0 0.00 0.00 0.00 87 1011.7
20260508092004 7 239 0.0 0.0 0.00 0.00 0.00 87 1011.6
20260508091004 7 239 0.0 0.0 0.00 0.00 0.00 88 1012.0
20260508090004 7 239 0.0 0.0 0.00 0.00 0.00 88 1012.0
20260508085003 7 239 0.0 0.0 0.00 0.00 0.00 87 1012.0
20260508084004 7 239 0.0 0.0 0.00 0.00 0.00 88 1011.8
20260508083003 7 239 0.0 0.0 0.00 0.00 0.00 87 1011.8
20260508082004 7 239 0.0 0.0 0.00 0.00 0.00 87 1011.9
20260508081004 7 239 0.0 0.0 0.00 0.00 0.00 88 1012.0
20260508080004 7 239 0.0 0.0 0.00 0.00 0.00 87 1012.1
20260508075004 7 239 0.0 0.0 0.00 0.00 0.00 87 1011.9
20260508074004 7 239 0.0 0.0 0.00 0.00 0.00 88 1012.0
20260508073006 7 239 0.0 0.0 0.00 0.00 0.00 87 1012.0
20260508072006 7 239 0.0 0.0 0.00 0.00 0.00 87 1012.1
20260508071006 7 239 0.0 0.0 0.00 0.00 0.00 86 1012.2
20260508070006 7 239 0.0 0.0 0.00 0.00 0.00 86 1012.0
20260508065005 7 239 0.0 0.0 0.00 0.00 0.00 86 1012.2
20260508064006 7 239 0.0 0.0 0.00 0.00 0.00 85 1012.2
20260508063005 7 239 0.0 0.0 0.00 0.00 0.00 85 1012.3
20260508062005 7 239 0.0 0.0 0.00 0.00 0.00 84 1012.4
20260508055005 7 245 0.0 0.0 0.00 0.00 0.00 82 1012.5
20260508054006 7 247 0.0 0.0 0.00 0.00 0.00 81 1012.6
20260508053006 7 250 0.0 0.0 0.00 0.00 0.00 81 1012.6
20260508052006 7 241 0.0 0.0 0.00 0.00 0.00 80 1012.6
20260508051005 8 239 0.0 0.0 0.00 0.00 0.00 79 1012.8
20260508050006 8 239 0.0 4.8 0.00 0.00 0.00 78 1012.8
20260508045005 8 241 0.0 0.0 0.00 0.00 0.00 77 1012.9
20260508044007 8 245 0.0 0.0 0.00 0.00 0.00 77 1012.6
20260508043005 9 238 16.1 20.9 0.00 0.00 0.00 75 1012.4
20260508042006 9 238 17.7 24.1 0.00 0.00 0.00 73 1012.3
20260508041006 10 232 16.1 20.9 0.00 0.00 0.00 70 1012.2
20260508040006 9 223 0.0 0.0 0.00 0.00 0.00 70 1012.6
20260508035005 9 240 0.0 0.0 0.00 0.00 0.00 71 1012.7
20260508034005 9 236 0.0 0.0 0.00 0.00 0.00 70 1012.9
20260508033006 9 235 0.0 0.0 0.00 0.00 0.00 69 1012.9
20260508032006 9 235 0.0 0.0 0.00 0.00 0.00 70 1012.8
20260508031006 8 235 0.0 0.0 0.00 0.00 0.00 71 1013.0
20260508030006 8 237 0.0 0.0 0.00 0.00 0.00 71 1013.0
20260508025006 8 237 0.0 0.0 0.00 0.00 0.00 72 1013.0
20260508024006 8 242 0.0 0.0 0.00 0.00 0.00 72 1013.1
20260508023006 8 245 0.0 0.0 0.00 0.00 0.00 70 1013.1
20260508022006 8 238 0.0 0.0 0.00 0.00 0.00 69 1013.0
20260508015005 8 239 0.0 0.0 0.00 0.00 0.00 68 1013.0
20260508014006 8 240 0.0 0.0 0.00 0.00 0.00 66 1013.1
20260508013006 9 242 0.0 0.0 0.00 0.00 0.00 63 1012.9
20260508012005 10 237 0.0 0.0 0.00 0.00 0.00 61 1012.7
20260508011006 10 243 0.0 0.0 0.00 0.00 0.00 61 1013.0
20260508010005 10 243 0.0 0.0 0.00 0.00 0.00 59 1012.9
20260508005005 10 241 0.0 25.7 0.00 0.00 0.00 57 1012.9
20260508004005 10 241 16.1 24.1 0.00 0.00 0.00 54 1013.0
20260508003006 11 246 22.5 27.4 0.00 0.00 0.00 51 1013.0
20260508000005 12 251 22.5 33.8 0.00 0.00 0.00 42 1012.6
20260507235005 12 246 25.7 27.4 0.00 0.00 0.00 39 1012.4
20260507234005 13 247 20.9 25.7 0.00 0.00 0.00 37 1012.3
20260507233006 13 244 19.3 33.8 0.00 0.00 0.00 35 1012.3
20260507231006 13 237 8.0 16.1 0.00 0.00 0.00 34 1012.3
20260507230006 13 243 11.3 20.9 0.00 0.00 0.00 33 1012.4
20260507225005 13 245 11.3 20.9 0.00 0.00 0.00 33 1012.3
20260507224005 13 238 14.5 20.9 0.00 0.00 0.00 32 1012.2
20260507223005 15 234 14.5 27.4 0.00 0.00 0.00 30 1012.2
20260507222005 14 245 4.8 20.9 0.00 0.00 0.00 32 1012.2
20260507221005 13 249 14.5 16.1 0.00 0.00 0.00 33 1012.4
20260507220005 14 253 9.7 20.9 0.00 0.00 0.00 30 1012.3
20260507215005 14 250 9.7 19.3 0.00 0.00 0.00 31 1012.1
20260507214006 15 260 8.0 16.1 0.00 0.00 0.00 31 1012.2
20260507213005 14 272 3.2 16.1 0.00 0.00 0.00 34 1012.2
20260507212005 15 246 11.3 20.9 0.00 0.00 0.00 31 1012.2
20260507211005 15 237 16.1 20.9 0.00 0.00 0.00 29 1012.1
20260507210006 15 0 4.8 16.1 0.00 0.00 0.00 34 1012.2
20260507205006 15 316 8.0 11.3 0.00 0.00 0.00 34 1012.4
20260507203005 14 271 6.4 11.3 0.00 0.00 0.00 36 1012.5
20260507202006 15 254 8.0 16.1 0.00 0.00 0.00 33 1012.6
20260507201005 14 284 8.0 16.1 0.00 0.00 0.00 36 1012.7
20260507200005 13 342 6.4 14.5 0.00 0.00 0.00 36 1012.8